[[{"header":{"parameterUnit":"m.s-1","parameterCategory":1,"la1":30.2991,"la2":30.254,"lo1":-89.0895,"lo2":-89.0444,"dy":0.0017,"dx":0.0017,"nx":28,"ny":28,"refTime":"2025-04-08T21:00:00:Z","depth":0,"parameterNumber":2,"parameterNumberName":"U-component_of_WINDS"},"data":[0,0,0,0,0,0,0,0,0,0,0,0,0,0,0,0,0,0,0,0,0,0,0,0,0,0,0,0,0,0,0,0,0,0,0,0,0,0,0,0,0,0,0,0,0,0,0,0,0,0,0,0,0,0,0,0,0,0,0.5159,0.516,0,0.5255,0.5256,0.5257,0.5323,0.5323,0.5324,0.5324,0.5427,0.5429,0.5431,0,0,0,0,0,0,0,0,0,0,0,0,0,0.5037,0.5039,0.5159,0.516,0.5161,0.5255,0.5256,0.5257,0.5323,0.5323,0.5324,0.5324,0.5426,0.5429,0.5431,0,0,0,0,0,0,0,0,0,0,0,0,0,0.5107,0.504,0.5159,0.5205,0.521,0.5254,0.5256,0.5258,0.5323,0.5323,0.5324,0.5325,0.5425,0.5428,0.5432,0.5439,0,0,0.5442,0.5444,0,0,0,0,0,0,0,0,0.5103,0.5112,0.5197,0.5202,0.5208,0.5277,0.5251,0.5318,0.5322,0.528,0.5324,0.5325,0.5377,0.5384,0.5401,0.5443,0.5448,0.5442,0.5445,0.5446,0.5447,0,0,0,0,0,0,0,0.5098,0.5108,0.5197,0.5198,0.5205,0.5223,0.5233,0.5264,0.5323,0.5284,0.5289,0.5299,0.538,0.5397,0.5404,0.5449,0.5442,0.5445,0.5448,0.5449,0.5503,0.5503,0,0,0,0,0,0,0.5086,0.5104,0.5194,0.52,0.5156,0.5224,0.5236,0.5254,0.5323,0.5334,0.5298,0.5302,0.5391,0.54,0.5407,0.5421,0.5446,0.5449,0.5451,0.5504,0.5503,0.5502,0,0,0,0,0,0,0.5083,0.5093,0.519,0.5153,0.5167,0.5226,0.5246,0.5256,0.5273,0.5334,0.5345,0.5305,0.5392,0.5403,0.543,0.5425,0.5451,0.5454,0.5505,0.5504,0.5503,0.5446,0,0,0,0,0,0,0.5079,0.5092,0.5094,0.5153,0.5168,0.521,0.5245,0.5257,0.5279,0.5284,0.5343,0.5354,0.5393,0.5425,0.5434,0.543,0.5457,0.5505,0.5504,0.5503,0.5449,0.5443,0.5439,0,0,0,0,0,0.5074,0.5075,0.5094,0.5104,0.5172,0.5209,0.5219,0.5263,0.5278,0.5281,0.532,0.5352,0.5424,0.5427,0.5438,0.5435,0.5506,0.5505,0.5503,0.5451,0.5444,0.5439,0,0,0,0,0,0,0.5016,0.5083,0.5105,0.5124,0.516,0.522,0.5226,0.5254,0.5288,0.5292,0.5347,0.536,0.5382,0.5411,0.5413,0.5446,0.5469,0.5469,0.5425,0.542,0.5415,0.5408,0.5459,0,0,0,0,0,0.5004,0.5027,0.5086,0.5098,0.5114,0.5167,0.5185,0.5215,0.5256,0.5272,0.5313,0.5352,0.5384,0.5403,0.5436,0.5453,0.5468,0.5457,0.5452,0.5447,0.5447,0.546,0.5456,0.5498,0.5498,0.5498,0,0,0.4982,0.5022,0.5034,0.5087,0.5118,0.5142,0.5179,0.5203,0.5222,0.5276,0.5304,0.5335,0.5383,0.5405,0.5417,0.5431,0.5439,0.5445,0.5441,0.5444,0.5458,0.5454,0.545,0.5497,0.5497,0.5497,0,0,0.4955,0.4987,0.5,0.503,0.5077,0.5112,0.5115,0.5171,0.5193,0.5222,0.5263,0.5287,0.534,0.5372,0.5395,0.5379,0.541,0.5388,0.5363,0.5374,0.537,0.5368,0.5363,0.536,0.5388,0.5388,0.5388,0,0.4922,0.4958,0.5003,0.5024,0.5047,0.5095,0.511,0.5138,0.5193,0.5208,0.5222,0.5289,0.5325,0.5356,0.5352,0.5369,0.5375,0.5382,0.5367,0.5365,0.5363,0.5359,0.5357,0.5385,0.5385,0.5386,0.5386,0,0.4916,0.494,0.4945,0.4996,0.5019,0.5037,0.5086,0.5104,0.5133,0.5167,0.5196,0.524,0.5282,0.5292,0.5321,0.5327,0.5334,0.5356,0.5381,0.5355,0.5352,0.5351,0.5381,0.5382,0.5383,0.5384,0,0,0.4854,0.4929,0.493,0.4954,0.5009,0.503,0.505,0.509,0.5104,0.5141,0.516,0.5204,0.5225,0.5251,0.5284,0.5294,0.5279,0.5316,0.5318,0.5308,0.529,0.5272,0.527,0.5299,0.5299,0.5299,0.5286,0,0.4835,0.4872,0.4914,0.4937,0.4961,0.5007,0.5025,0.5062,0.5094,0.512,0.5156,0.5186,0.5211,0.5228,0.5239,0.5278,0.5276,0.528,0.5319,0.532,0.5306,0.5268,0.525,0.5236,0.5285,0.5285,0.5285,0,0.4818,0.4851,0.4876,0.4929,0.4941,0.4956,0.4996,0.5019,0.5062,0.5085,0.5114,0.5149,0.5174,0.5194,0.5231,0.5232,0.5251,0.5272,0.5273,0.5279,0.5301,0.5274,0.5232,0.523,0.5283,0.5283,0.5283,0,0.4771,0.4822,0.4844,0.4863,0.4925,0.4934,0.4961,0.5004,0.5025,0.5061,0.5075,0.5113,0.5135,0.5164,0.5209,0.522,0.524,0.5265,0.5261,0.526,0.5264,0.5263,0.5225,0.5275,0.5275,0.5275,0.5275,0,0.4746,0.476,0.4823,0.4837,0.4854,0.4902,0.4918,0.4949,0.4987,0.5009,0.5052,0.5071,0.5128,0.5155,0.519,0.5215,0.5225,0.5245,0.5254,0.5241,0.5238,0.5254,0.5257,0.5274,0.5274,0.5274,0.5274,0,0.4697,0.474,0.4767,0.4823,0.4837,0.4847,0.4896,0.4912,0.4946,0.4973,0.4982,0.5036,0.5069,0.5116,0.5165,0.5189,0.5209,0.5224,0.5194,0.52,0.5193,0.5193,0.5165,0.5164,0.5213,0.5212,0.5212,0,0.4678,0.469,0.4747,0.4763,0.4788,0.4814,0.4836,0.4884,0.4905,0.4954,0.4964,0.5,0.5032,0.5084,0.5128,0.5166,0.5182,0.5169,0.5188,0.5175,0.5183,0.5181,0.5183,0.5165,0.5164,0.5164,0.5163,0,0.4641,0.4661,0.469,0.4726,0.475,0.4781,0.4814,0.4826,0.4881,0.4902,0.4936,0.4961,0.501,0.5046,0.5089,0.5118,0.515,0.5157,0.5158,0.5145,0.5128,0.5138,0.5182,0.5157,0.5158,0.5158,0.5159,0.5159,0.4607,0.462,0.4661,0.4692,0.4721,0.4751,0.4769,0.4804,0.4833,0.4875,0.4902,0.4935,0.4978,0.5039,0.5067,0.5094,0.5107,0.5109,0.5109,0.5109,0.5105,0.5122,0.5102,0.5103,0.5103,0.5103,0.5103,0,0.4573,0.4601,0.4629,0.4673,0.4697,0.4723,0.4761,0.478,0.4808,0.4845,0.4875,0.4914,0.4949,0.4996,0.5035,0.5048,0.5064,0.5057,0.5057,0.5063,0.5091,0.5086,0.5043,0.5043,0.5043,0.5043,0.5043,0.5043,0.4557,0.458,0.4605,0.4643,0.4673,0.4704,0.4723,0.4752,0.4781,0.4823,0.4851,0.4881,0.4922,0.4964,0.4998,0.5011,0.5024,0.5012,0.503,0.5055,0.5061,0.5066,0.5062,0.5015,0.5015,0.5,0.5,0.5]},{"header":{"parameterUnit":"m.s-1","parameterCategory":1,"la1":30.2991,"la2":30.254,"lo1":-89.0895,"lo2":-89.0444,"dy":0.0017,"dx":0.0017,"nx":28,"ny":28,"refTime":"2025-04-08T21:00:00:Z","depth":0,"parameterNumber":3,"parameterNumberName":"V-component_of_WINDS"},"data":[0,0,0,0,0,0,0,0,0,0,0,0,0,0,0,0,0,0,0,0,0,0,0,0,0,0,0,0,0,0,0,0,0,0,0,0,0,0,0,0,0,0,0,0,0,0,0,0,0,0,0,0,0,0,0,0,0,0,1.2233,1.2234,0,1.2284,1.2285,1.2285,1.2271,1.227,1.2269,1.2268,1.2319,1.2322,1.2324,0,0,0,0,0,0,0,0,0,0,0,0,0,1.2118,1.212,1.2233,1.2234,1.2234,1.2284,1.2285,1.2286,1.2271,1.227,1.2268,1.2267,1.2319,1.2321,1.2324,0,0,0,0,0,0,0,0,0,0,0,0,0,1.2169,1.2121,1.2233,1.2233,1.2234,1.2284,1.2285,1.2286,1.2271,1.227,1.2268,1.2267,1.2318,1.2321,1.2325,1.2378,0,0,1.2335,1.2337,0,0,0,0,0,0,0,0,1.2166,1.2173,1.2233,1.2233,1.2234,1.227,1.2263,1.2317,1.2272,1.2257,1.2268,1.2266,1.2304,1.2309,1.2322,1.238,1.2383,1.2336,1.2338,1.2339,1.234,0,0,0,0,0,0,0,1.2162,1.2171,1.2253,1.2233,1.2234,1.2229,1.2234,1.2273,1.2289,1.2258,1.2257,1.2263,1.2304,1.2318,1.2323,1.2383,1.2336,1.2339,1.2341,1.2342,1.2481,1.2482,0,0,0,0,0,0,1.2159,1.2168,1.2252,1.2255,1.2195,1.2232,1.2238,1.226,1.2288,1.2291,1.2265,1.2263,1.2313,1.2319,1.2325,1.2384,1.2339,1.2343,1.2345,1.2479,1.2481,1.2483,0,0,0,0,0,0,1.2156,1.2166,1.225,1.2211,1.2221,1.2236,1.226,1.2262,1.2276,1.2293,1.2296,1.2277,1.2312,1.232,1.2363,1.2386,1.2344,1.2348,1.2477,1.248,1.2482,1.2507,0,0,0,0,0,0,1.2153,1.2166,1.2188,1.2212,1.2223,1.2289,1.2262,1.2264,1.2282,1.228,1.2305,1.2308,1.2311,1.2358,1.2367,1.239,1.235,1.2475,1.2479,1.2481,1.2504,1.251,1.2515,0,0,0,0,0,1.2149,1.2194,1.2189,1.2199,1.2251,1.2291,1.2297,1.2301,1.2284,1.2305,1.2315,1.2307,1.2382,1.2363,1.2372,1.2397,1.2474,1.2478,1.2481,1.2502,1.2509,1.2514,0,0,0,0,0,0,1.2174,1.2197,1.2192,1.2246,1.2266,1.2288,1.2315,1.2309,1.2334,1.2331,1.2334,1.234,1.2383,1.2395,1.2373,1.2446,1.2425,1.2431,1.2438,1.2444,1.245,1.2445,1.2353,0,0,0,0,0,1.2186,1.2216,1.2235,1.2281,1.2291,1.2301,1.2319,1.2319,1.234,1.2348,1.2362,1.2382,1.2409,1.2428,1.2455,1.2505,1.2508,1.2527,1.2532,1.2536,1.2541,1.2563,1.257,1.2494,1.2494,1.2494,0,0,1.2211,1.2227,1.2247,1.2286,1.2302,1.2331,1.2309,1.2343,1.2364,1.2354,1.2394,1.2405,1.2427,1.2472,1.2493,1.2483,1.2561,1.2541,1.2544,1.2546,1.2567,1.2574,1.258,1.2497,1.2496,1.2496,0,0,1.227,1.2287,1.2325,1.2339,1.2362,1.2368,1.2376,1.2398,1.2404,1.2445,1.2436,1.246,1.2509,1.2523,1.2537,1.2594,1.2586,1.2603,1.263,1.2652,1.2658,1.2663,1.268,1.2686,1.2608,1.2608,1.2608,0,1.2298,1.2343,1.2345,1.2377,1.2393,1.2383,1.2418,1.2433,1.2464,1.2474,1.2462,1.2518,1.2533,1.2579,1.2593,1.2606,1.2613,1.26,1.2657,1.2662,1.2667,1.2683,1.269,1.2609,1.2609,1.2609,1.2609,0,1.2374,1.2405,1.2432,1.2459,1.2478,1.2512,1.2516,1.2535,1.2532,1.2537,1.2576,1.2592,1.2619,1.263,1.263,1.2675,1.2667,1.2656,1.2635,1.2676,1.2691,1.2697,1.2612,1.2611,1.2611,1.261,0,0,1.2454,1.2477,1.2487,1.2496,1.2518,1.2541,1.2573,1.2598,1.2611,1.2632,1.2656,1.2694,1.2682,1.2697,1.2697,1.2716,1.2755,1.2702,1.2703,1.2709,1.2801,1.2808,1.2815,1.275,1.2751,1.2752,1.2798,0,1.2513,1.2568,1.2567,1.2618,1.2643,1.2631,1.2658,1.2673,1.2677,1.2698,1.2704,1.2729,1.2714,1.2722,1.274,1.2747,1.2773,1.2744,1.277,1.2771,1.2763,1.2824,1.2832,1.2875,1.2804,1.2805,1.2806,0,1.259,1.2609,1.2661,1.2673,1.2684,1.2708,1.2728,1.2749,1.2764,1.2765,1.2779,1.2775,1.2803,1.2781,1.2818,1.2798,1.2808,1.2812,1.2814,1.2815,1.279,1.2824,1.2889,1.2894,1.2816,1.2815,1.2815,0,1.2637,1.2677,1.2711,1.2721,1.2737,1.2753,1.276,1.2773,1.2787,1.2804,1.2811,1.2832,1.2843,1.2858,1.2857,1.2842,1.2894,1.2873,1.2894,1.2893,1.2905,1.2904,1.297,1.2915,1.2915,1.2915,1.2915,0,1.2702,1.2733,1.2732,1.2754,1.2787,1.2784,1.2817,1.2823,1.2833,1.2853,1.2845,1.2864,1.2863,1.2881,1.2881,1.2909,1.2915,1.2915,1.2914,1.2915,1.2914,1.2921,1.2917,1.2916,1.2916,1.2916,1.2915,0,1.2761,1.2762,1.2799,1.2809,1.2812,1.2836,1.2844,1.2863,1.2865,1.289,1.2896,1.2899,1.292,1.292,1.2945,1.2944,1.2978,1.2975,1.2973,1.2971,1.2991,1.2988,1.3062,1.307,1.3012,1.3013,1.3013,0,1.2801,1.2825,1.2836,1.2848,1.2855,1.2876,1.2888,1.2885,1.2898,1.2913,1.2929,1.2948,1.2963,1.2996,1.3,1.3017,1.3013,1.3038,1.3016,1.3014,1.301,1.3007,1.3008,1.3042,1.3042,1.3043,1.3043,0,1.2871,1.2868,1.2887,1.2903,1.2917,1.293,1.2943,1.2953,1.295,1.2965,1.2985,1.2996,1.3019,1.3037,1.3052,1.3058,1.3049,1.305,1.3055,1.3055,1.3051,1.305,1.2982,1.3048,1.3048,1.3048,1.3047,1.3047,1.292,1.2937,1.2946,1.2965,1.2973,1.2983,1.2999,1.3002,1.3018,1.3036,1.3032,1.3054,1.3062,1.3082,1.3089,1.3104,1.3095,1.3104,1.3106,1.3107,1.3107,1.305,1.3107,1.3107,1.3107,1.3107,1.3107,0,1.2985,1.2989,1.3006,1.3021,1.3035,1.3024,1.3035,1.3047,1.3066,1.3075,1.3088,1.3108,1.3125,1.3128,1.3143,1.3154,1.315,1.3158,1.3156,1.3156,1.3116,1.3109,1.316,1.316,1.316,1.316,1.316,1.316,1.3021,1.3049,1.3047,1.3077,1.3081,1.3101,1.3107,1.3115,1.3121,1.3144,1.3157,1.3158,1.3164,1.3178,1.3191,1.3191,1.3196,1.3205,1.3203,1.3165,1.316,1.3155,1.3148,1.3206,1.3206,1.3242,1.3242,1.3242]}]]